Stations météo

réclame
Mon MeteoGroup
Kalmar, Suède (2670): Température de l'air & dewpoint: 15.10.2018 16:00:00 - 21.10.2018 16:00:00 (CEST)Kalmar, Suède (2670): Vitesse du vent: 15.10.2018 16:00:00 - 21.10.2018 16:00:00 (CEST)Kalmar, Suède (2670): Direction du vent: 15.10.2018 16:00:00 - 21.10.2018 16:00:00 (CEST)Kalmar, Suède (2670): reduced air pressure: 15.10.2018 16:00:00 - 21.10.2018 16:00:00 (CEST)Kalmar, Suède (2670): visibility: 15.10.2018 16:00:00 - 21.10.2018 16:00:00 (CEST)
Date & Time tt [°C] td [°C] ff [km/h] ff [knt] dd ppp [hPa] vv [km]
21.10.2018 16:00:00 13,2 8,1 18 10 SW 1022,7 10
21.10.2018 15:00:00 13,8 6,4 18 10 SW 1023,0 10
21.10.2018 14:00:00 13,9 6,7 16 9 SW 1023,6 10
21.10.2018 13:00:00 13,0 6,6 16 9 SW 1024,1 10
21.10.2018 12:00:00 11,8 7,7 15 8 WSW 1025,0 10
21.10.2018 11:00:00 9,2 7,1 13 7 SW 1025,1 10
21.10.2018 10:00:00 5,7 5,3 8 4 SW 1025,4 10
21.10.2018 09:00:00 2,4 2,4 4 2 - 1025,6 10
21.10.2018 08:00:00 -1,5 -1,5 5 3 WSW 1025,5 10
21.10.2018 07:00:00 -1,4 -1,4 4 2 WSW 1025,5 3,3
21.10.2018 06:00:00 -2,2 -2,2 4 2 SSW 1025,4 2,2
21.10.2018 05:00:00 -2,0 -2,0 4 2 S 1025,4 2,0
21.10.2018 04:00:00 -1,6 -1,6 4 2 S 1025,6 0,2
21.10.2018 03:00:00 -0,8 -0,8 2 1 - 1025,5 0,2
21.10.2018 02:00:00 -1,0 -1,0 2 1 SW 1025,5 2,1
21.10.2018 01:00:00 -0,2 -0,2 0 0 N 1025,2 0,2
21.10.2018 00:00:00 0,3 0,3 2 1 WSW 1025,3 0,3
20.10.2018 23:00:00 1,2 1,2 4 2 WSW 1025,1 0,2
20.10.2018 22:00:00 2,2 2,2 0 0 N 1025,1 0,2
20.10.2018 21:00:00 3,2 3,1 0 0 N 1024,8 0,3
20.10.2018 20:00:00 5,0 4,1 0 0 N 1024,3 10
20.10.2018 19:00:00 9,3 6,2 5 3 W 1023,9 10
20.10.2018 18:00:00 10,6 6,5 5 3 WNW 1023,6 10
20.10.2018 17:00:00 11,7 6,4 9 5 W 1023,2 10
20.10.2018 16:00:00 12,2 6,9 11 6 W 1023,1 10
20.10.2018 15:00:00 12,3 6,8 15 8 W 1023,2 10
20.10.2018 14:00:00 12,6 7,3 15 8 W 1023,1 10
20.10.2018 13:00:00 11,4 7,1 16 9 W 1023,2 10
20.10.2018 12:00:00 11,1 7,0 11 6 W 1023,2 10
20.10.2018 11:00:00 9,3 6,6 11 6 WNW 1023,2 10
20.10.2018 10:00:00 8,1 6,2 11 6 W 1023,0 10
20.10.2018 09:00:00 7,3 5,9 11 6 W 1022,7 10
20.10.2018 08:00:00 6,8 5,7 11 6 W 1022,5 10
20.10.2018 07:00:00 6,4 5,4 13 7 W 1022,3 10
20.10.2018 06:00:00 5,1 4,7 5 3 - 1022,0 10
20.10.2018 05:00:00 4,7 4,4 8 4 WSW 1022,3 10
20.10.2018 04:00:00 4,5 3,9 5 3 WSW 1022,4 10
20.10.2018 03:00:00 4,6 4,0 5 3 W 1022,6 10
20.10.2018 02:00:00 2,7 2,4 5 3 WSW 1022,6 10
20.10.2018 01:00:00 0,7 0,6 2 1 W 1022,9 10
20.10.2018 00:00:00 0,0 -0,1 8 4 W 1023,1 4,3
19.10.2018 23:00:00 1,0 0,6 4 2 SW 1023,4 10
19.10.2018 22:00:00 1,3 0,6 2 1 - 1023,5 10
19.10.2018 21:00:00 3,2 1,4 5 3 WSW 1023,4 10
19.10.2018 20:00:00 5,6 3,1 8 4 WSW 1023,2 10
19.10.2018 19:00:00 3,9 2,3 5 3 SSW 1023,3 10
19.10.2018 18:00:00 8,5 3,9 9 5 S 1023,2 10
19.10.2018 17:00:00 9,7 4,9 9 5 S 1023,3 10
19.10.2018 16:00:00 11,2 5,3 13 7 S 1023,6 10
19.10.2018 15:00:00 13,6 1,6 9 5 WSW 1023,7 10
19.10.2018 14:00:00 12,3 2,7 8 4 W 1024,5 10
19.10.2018 13:00:00 12,0 4,5 5 3 WNW 1024,6 10
19.10.2018 12:00:00 8,9 4,7 4 2 W 1024,9 10
19.10.2018 11:00:00 6,3 4,0 5 3 NW 1024,9 10
19.10.2018 10:00:00 4,0 2,7 0 0 N 1025,1 10
19.10.2018 09:00:00 1,6 1,0 0 0 N 1024,8 10
19.10.2018 08:00:00 -2,3 -2,4 0 0 N 1024,4 5
19.10.2018 07:00:00 -2,6 -2,9 5 3 NW 1024,1 10
19.10.2018 06:00:00 -2,2 -2,5 0 0 N 1023,9 10
19.10.2018 05:00:00 -1,3 -1,3 2 1 NNW 1023,6 1,6
19.10.2018 04:00:00 -1,5 -1,5 5 3 NNW 1023,7 0,5
19.10.2018 03:00:00 -0,5 -0,6 2 1 WNW 1023,6 1,5
19.10.2018 02:00:00 -0,5 -0,9 0 0 N 1023,6 10
19.10.2018 01:00:00 0,9 0,2 0 0 N 1023,6 10
19.10.2018 00:00:00 3,3 1,3 5 3 NNW 1023,3 10
18.10.2018 23:00:00 3,2 0,9 8 4 NW 1022,9 10
18.10.2018 22:00:00 4,3 1,8 8 4 NW 1022,6 10
18.10.2018 21:00:00 4,5 1,9 9 5 NNW 1022,2 10
18.10.2018 20:00:00 6,7 3,1 8 4 NW 1021,4 10
18.10.2018 19:00:00 8,2 2,4 8 4 NNW 1021,0 10
18.10.2018 18:00:00 9,8 3,7 13 7 N 1020,2 10
18.10.2018 17:00:00 14,3 6,6 9 5 NNW 1019,4 10
18.10.2018 16:00:00 16,1 7,3 15 8 NW 1018,7 10
18.10.2018 15:00:00 16,2 8,2 16 9 NNW 1018,4 10
18.10.2018 14:00:00 15,1 14,1 4 2 - 1018,6 7
18.10.2018 13:00:00 13,5 13,3 4 2 WNW 1018,7 4,1
18.10.2018 12:00:00 12,5 12,5 5 3 W 1018,6 2,8
18.10.2018 11:00:00 11,1 11,1 5 3 WSW 1018,5 1,6
18.10.2018 10:00:00 9,9 9,9 2 1 - 1018,4 0,6
18.10.2018 09:00:00 7,2 7,2 4 2 WSW 1018,3 0,1
18.10.2018 08:00:00 5,4 5,4 4 2 WSW 1017,9 1,3
18.10.2018 07:00:00 3,5 3,5 4 2 S 1017,6 10
18.10.2018 06:00:00 2,6 2,6 5 3 S 1017,9 0,4
18.10.2018 05:00:00 3,7 3,7 5 3 SSW 1018,1 0,1
18.10.2018 04:00:00 3,7 3,7 0 0 N 1018,5 -
18.10.2018 03:00:00 4,0 4,0 4 2 S 1018,6 -
18.10.2018 02:00:00 4,3 4,3 4 2 SSW 1018,8 -
18.10.2018 01:00:00 4,7 4,7 5 3 S 1019,3 -
18.10.2018 00:00:00 4,7 4,7 11 6 S 1019,5 0,1
17.10.2018 23:00:00 6,7 6,7 11 6 S 1019,6 0,1
17.10.2018 22:00:00 6,9 6,6 5 3 SSE 1019,8 0,2
17.10.2018 21:00:00 7,5 7,2 9 5 S 1019,6 0,4
17.10.2018 20:00:00 9,4 9,1 11 6 SSE 1019,5 2,9
17.10.2018 19:00:00 9,5 8,9 11 6 SSE 1019,5 4,5
17.10.2018 18:00:00 10,8 9,7 13 7 S 1019,4 8
17.10.2018 17:00:00 12,5 10,4 15 8 S 1019,3 9
17.10.2018 16:00:00 14,4 10,8 18 10 S 1019,5 9
17.10.2018 15:00:00 14,7 11,7 16 9 S 1019,7 8
17.10.2018 14:00:00 15,4 12,5 9 5 SSE 1019,6 8
17.10.2018 13:00:00 16,0 12,9 8 4 S 1019,8 7
17.10.2018 12:00:00 14,1 12,0 9 5 SSE 1020,3 7
17.10.2018 11:00:00 11,9 11,0 8 4 S 1020,5 6
17.10.2018 10:00:00 9,8 9,8 9 5 SSE 1020,3 3,4
17.10.2018 09:00:00 6,1 6,1 0 0 N 1020,0 5
17.10.2018 08:00:00 2,6 2,6 0 0 N 1019,8 6
17.10.2018 07:00:00 3,4 3,4 0 0 N 1019,6 2,0
17.10.2018 06:00:00 3,3 3,3 4 2 - 1019,4 0,3
17.10.2018 05:00:00 2,9 2,9 0 0 N 1019,3 0,1
17.10.2018 04:00:00 4,5 4,5 5 3 SE 1019,1 0,1
17.10.2018 03:00:00 3,9 3,9 0 0 N 1019,4 0,1
17.10.2018 02:00:00 4,7 4,7 2 1 - 1019,3 -
17.10.2018 01:00:00 4,2 4,2 5 3 SSE 1019,4 -
17.10.2018 00:00:00 4,9 4,9 0 0 N 1019,6 -
16.10.2018 23:00:00 6,0 5,9 4 2 WNW 1019,7 -
16.10.2018 22:00:00 7,3 7,0 9 5 S 1019,7 0,1
16.10.2018 21:00:00 10,1 9,8 9 5 S 1019,7 10
16.10.2018 20:00:00 11,8 10,7 15 8 S 1019,5 10
16.10.2018 19:00:00 10,9 9,3 9 5 SSE 1019,1 10
16.10.2018 18:00:00 12,1 10,5 9 5 SSE 1018,9 10
16.10.2018 17:00:00 13,5 11,2 8 4 SSE 1018,7 10
16.10.2018 16:00:00 15,2 11,6 9 5 SSE 1018,8 10
16.10.2018 15:00:00 15,5 11,4 11 6 S 1018,8 10
16.10.2018 14:00:00 16,0 11,6 8 4 SSW 1018,9 10
16.10.2018 13:00:00 15,3 11,1 8 4 S 1018,7 10
16.10.2018 12:00:00 15,1 11,7 4 2 - 1018,6 10
16.10.2018 11:00:00 12,2 10,8 4 2 S 1018,5 10
16.10.2018 10:00:00 9,4 9,4 0 0 N 1018,2 8
16.10.2018 09:00:00 5,7 5,7 0 0 N 1018,0 1,1
16.10.2018 08:00:00 2,2 2,2 0 0 N 1017,5 0,2
16.10.2018 07:00:00 2,7 2,7 0 0 N 1017,0 0,1
16.10.2018 06:00:00 2,6 2,6 0 0 N 1016,7 0,1
16.10.2018 05:00:00 2,7 2,7 2 1 - 1016,7 -
16.10.2018 04:00:00 3,0 3,0 4 2 - 1016,4 0,1
16.10.2018 03:00:00 3,3 3,3 0 0 N 1016,4 0,1
16.10.2018 02:00:00 3,6 3,6 0 0 N 1016,5 -
16.10.2018 01:00:00 4,1 4,1 4 2 S 1016,0 -
16.10.2018 00:00:00 3,7 3,4 8 4 S 1016,3 0,2
15.10.2018 23:00:00 9,4 9,3 11 6 S 1016,3 6
15.10.2018 22:00:00 7,9 7,6 11 6 SSE 1016,6 5
15.10.2018 21:00:00 7,4 7,1 11 6 S 1016,8 10
15.10.2018 20:00:00 9,0 8,4 13 7 S 1016,9 10
15.10.2018 19:00:00 11,1 9,2 15 8 S 1016,6 10
15.10.2018 18:00:00 10,5 9,6 16 9 S 1016,3 10
15.10.2018 17:00:00 11,8 10,0 18 10 S 1016,2 10
15.10.2018 16:00:00 13,1 10,5 21 11 S 1016,3 10

tt = Température de l'air
td = dewpoint
ff = Vitesse du vent
dd = Direction du vent
ppp = reduced air pressure
vv = visibility

stations d'obs. à proximité